Regional Weather Roundup
Issued by NWS Midland/Odessa, TX

Skip options and go directly to product.
Home | Oldest Version | Previous Version | Current Version | All | Text Only | Save Text | Print | Product List | Glossary Off

Skip product version selection by date and time.   

101
ASUS44 KMAF 252310
RWRMAF
MIDLAND AREA WEATHER ROUNDUP
NATIONAL WEATHER SERVICE MIDLAND TX
600 PM CDT THU AUG 25 2016

...IN SOUTHWEST TEXAS AND SOUTHEAST NEW MEXICO...

CITY           SKY/WX    TMP DP  RH WIND       PRES   REMARKS
ALPINE         PTSUNNY   77  58  51 W6        30.18F
ANDREWS        NOT AVBL
ARTESIA        CLOUDY    75  66  73 SW15      30.10R
BIG SPRING     SUNNY     93  53  25 S12       30.01F
CARLSBAD       CLOUDY    74  65  73 SW9       30.07R
DRYDEN           N/A     90  54  29 SE14      29.97F
FORT STOCKTON  CLOUDY    82  60  47 S3        30.01F
GUAD PASS      CLOUDY    68  55  63 E30       30.20F
HOBBS          PTSUNNY   79  64  61 SW6       30.08F
MARFA          LGT RAIN N/A N/A N/A S10       30.17F
MIDLAND AIRPK  PTSUNNY   87  59  38 NW15G21   30.01S
MIDLAND INTL   MOSUNNY   85  60  42 W13       29.99F
ODESSA         PTSUNNY   78  63  59 N13G18    30.02S
PECOS          MOSUNNY   76  68  75 W14       30.03S
PRESIDIO       NOT AVBL
SEMINOLE       RAIN      74  60  61 NE8G20    30.05F
SNYDER           N/A     91  56  30 SE16G22   29.99F
WINK           MOSUNNY   81  67  62 W15       30.02S
$$
...OTHER STATIONS IN TEXAS...

CITY           SKY/WX    TMP DP  RH WIND       PRES   REMARKS
ABILENE        SUNNY     92  58  31 SE12      30.00F
AMARILLO       TSTM      69  62  78 E14       30.10S
AUSTIN         CLOUDY    86  76  71 S5        29.97F
BROWNSVILLE    MOSUNNY   91  75  59 E14       29.95R HX 101
CORPUS CHRISTI MOSUNNY   92  72  51 E15       29.94F
DALLAS FTW     MOSUNNY   95  61  32 VRB6      29.96F
DEL RIO        MOSUNNY   92  63  38 E14       29.93F
EL PASO        PTSUNNY   87  52  29 E5        30.03F THUNDER
HOUSTON INT    CLOUDY    83  74  74 W3        29.99S
LUBBOCK        CLOUDY    80  69  69 S10       30.04F
SAN ANGELO     SUNNY     94  50  22 SE12G18   29.98F
SAN ANTONIO    PTSUNNY   89  71  55 E13       29.98F
WACO           SUNNY     91  70  49 SE6       29.97F
WICHITA FALLS  NOT AVBL
$$
...OTHER LOCATIONS IN NEW MEXICO...

CITY           SKY/WX    TMP DP  RH WIND       PRES   REMARKS
ALAMAGORDO     MOSUNNY   84  48  28 S12       30.06F
ALBUQUERQUE    CLOUDY    82  39  21 VRB5      30.13F
CANNON AFB     PTSUNNY   79  56  45 SW5       30.10F THUNDER
CLOVIS         MOSUNNY   79  57  47 SE8       30.10F
HOLLOMAN AFB   NOT AVBL
ROSWELL        CLOUDY    81  58  45 SE7       30.07R
RUIDOSO          N/A     68  50  52 S9        30.29S
SANTA FE       CLOUDY    76  38  25 CALM      30.19F
TRUTH OR CONSE SUNNY     86  40  19 SW9G21    30.07F
TUCUMCARI      MOSUNNY   82  56  40 E7        30.09F
$$

USA.gov is the U.S. government's official web portal to all federal, state and local government web resources and services.